Location: Frizzleburg
(41.0764°N, 80.4548°W)
Time: 13:25:15
(UTC+00:00)

Shenzhou-11 Module - Visible Passes

Search period start: 22 February 2020 00:00
Search period end: 03 March 2020 00:00
Orbit: 297 x 312 km, 42.8° (Epoch: 21 February)

Date Brightness Start Highest point End Pass type
(mag) Time Alt. Az. Time Alt. Az. Time Alt. Az.
22 Feb 1.9 10:56:29 35° WNW 10:57:17 54° N 10:59:52 10° E visible
23 Feb 1.7 11:05:41 24° WNW 11:07:03 64° N 11:09:40 10° E visible
24 Feb 1.5 11:14:51 17° WNW 11:16:43 88° SSW 11:19:21 10° ESE visible
25 Feb 5.0 09:53:25 14° E 09:53:25 14° E 09:53:55 10° E visible
25 Feb 2.0 11:23:59 12° W 11:26:16 49° SSW 11:28:50 10° SE visible
26 Feb 4.4 10:02:33 20° E 10:02:33 20° E 10:03:31 10° E visible
27 Feb 3.7 10:11:42 25° ESE 10:11:42 25° ESE 10:12:59 10° ESE visible
28 Feb 3.6 10:20:53 22° SSE 10:20:53 22° SSE 10:22:09 10° SE visible
29 Feb 4.1 10:30:08 14° S 10:30:08 14° S 10:30:50 10° SSE visible
